#timestamp,LO_Frequency,Hit 
1505116815.7,286046999.4,N
1505116835.6,286047000.8,N
1505116855.4,286046998.3,N
1505116875.2,286047004.2,N
1505116895.1,286047002.3,N
1505116896.0,286047002.3,N
1505116915.8,286046998.6,N
1505116935.6,286046998.7,N
1505116955.5,286046999.0,N
1505116975.3,286046999.1,N
1505116995.1,286046994.9,N
1505117015.9,286046996.5,N
1505117035.7,286047000.4,N
1505117055.5,286047002.2,N
1505117075.4,286047003.6,N
1505117095.2,286047005.6,N
1505117115.0,286047001.5,N
1505117115.9,286047001.5,N
1505117135.8,286046999.1,N
1505117155.6,286046998.2,N
1505117175.4,286046996.9,N
1505117195.2,286046995.5,N
1505117215.1,286046999.3,N
1505117216.0,286046999.3,N
1505117235.8,286046996.1,N
1505117255.6,286046994.1,N
1505117275.5,286046991.7,P
1505117295.3,286046996.7,N
1505117315.1,286046995.1,N
1505117335.9,286046998.8,N
1505117355.7,286046997.2,N
1505117375.5,286046995.8,N
1505117395.4,286047000.0,N
1505117415.2,286047000.7,N
1505117435.0,286046996.9,N
1505117435.9,286046996.9,N
1505117455.8,286046998.8,N
1505117475.6,286046997.5,N
1505117495.4,286046998.0,N
1505117515.3,286046994.1,N
1505117535.1,286046994.1,N
1505117536.0,286046994.1,N
1505117555.8,286046995.9,N
1505117575.7,286046996.2,N
1505117595.5,286046995.0,N
1505117615.3,286046994.9,N
1505117635.1,286046996.0,N
1505117655.9,286046996.1,N
1505117675.7,286046993.7,P
1505117695.6,286046998.6,N
1505117715.4,286047003.0,N
1505117735.2,286047005.3,N
1505117755.0,286047004.5,N
1505117756.0,286047004.5,N
1505117775.8,286047006.3,N
1505117795.6,286047006.6,N
1505117815.4,286047005.7,N
1505117835.3,286047003.8,N
1505117855.1,286046999.9,N
1505117875.8,286046997.6,N
1505117895.7,286046998.3,N
1505117915.5,286046998.4,N
1505117935.3,286047000.7,N
1505117955.2,286047005.8,N
1505117975.9,286047004.1,N
1505117995.7,286047001.6,N
1505118015.6,286047001.6,N
1505118035.4,286047002.1,N
1505118055.2,286046998.6,N
1505118075.0,286047001.8,N
1505118076.0,286047001.8,N
1505118095.8,286047001.8,N
1505118115.6,286047001.3,N
1505118135.4,286047001.7,N
1505118155.3,286047002.1,N
1505118175.1,286047005.5,N
1505118195.8,286047003.1,N
1505118215.7,286047003.8,N
1505118235.5,286047002.8,N
1505118255.3,286047003.2,N
1505118275.2,286047004.4,N
1505118295.9,286047001.0,N
1505118315.7,286046998.2,N
1505118335.6,286046999.6,N
1505118355.4,286046996.9,N
1505118375.2,286046998.7,N
1505118395.0,286047003.1,N
1505118396.0,286047003.1,N
1505118415.8,286047002.4,N
1505118435.6,286047001.0,N
1505118455.4,286047002.2,N
1505118475.3,286047000.1,N
1505118495.1,286047001.0,N
1505118515.8,286047000.9,N
1505118535.7,286047004.1,N
1505118555.5,286047001.7,N
1505118575.3,286046997.4,N
1505118595.2,286046997.4,N
1505118615.9,286046997.4,N
1505118635.7,286046996.6,N
1505118655.6,286046999.5,N
1505118675.4,286046996.6,N
1505118695.2,286046995.0,N
1505118715.1,286046995.0,N
1505118716.0,286046995.0,N
1505118735.8,286046996.8,N
1505118755.6,286046996.5,N
1505118775.5,286047000.5,N
1505118795.3,286046998.5,N
1505118815.1,286046997.0,N
1505118835.8,286046995.4,N
1505118855.7,286046999.6,N
1505118875.5,286046999.3,N
1505118895.3,286047001.4,N
1505118915.2,286047002.1,N
1505118935.9,286047002.2,N
1505118955.7,286047002.9,N
1505118975.6,286047002.9,N
1505118995.4,286047001.5,N
1505119015.2,286047004.4,N
1505119035.1,286046999.8,N
1505119036.0,286046999.8,N
1505119055.8,286047000.7,N
1505119075.6,286047004.1,N
1505119095.5,286047001.0,N
1505119115.3,286047003.1,N
1505119135.1,286047005.7,N
1505119155.9,286047000.3,N
1505119175.7,286047001.5,N
1505119195.5,286046998.4,N
1505119215.3,286046999.0,N
1505119235.2,286047002.6,N
1505119255.0,286047003.4,N
1505119255.9,286047003.4,N
1505119275.7,286047007.6,N
1505119295.6,286047003.7,N
1505119315.4,286047003.6,N
1505119335.2,286047004.5,N
1505119355.1,286047005.6,N
1505119356.0,286047005.6,N
1505119375.8,286047007.5,N
1505119395.6,286047003.2,N
1505119415.5,286047002.0,N
1505119435.3,286047003.4,N
1505119455.1,286047000.8,N
1505119475.9,286046996.7,N
1505119495.7,286046998.3,N
1505119515.5,286046996.8,N
1505119535.4,286047002.6,N
1505119555.2,286047002.4,N
1505119575.0,286047002.2,N
1505119575.9,286047002.2,N
1505119595.8,286046999.3,N
1505119615.6,286046998.1,N
1505119635.4,286047000.1,N
1505119655.2,286046996.5,N
1505119675.1,286047002.5,N
1505119676.0,286047002.5,N
1505119695.8,286047002.3,N
1505119715.6,286047002.6,N
1505119735.5,286047003.1,N
1505119755.3,286047000.5,N
1505119775.1,286047001.1,N
1505119795.9,286046999.2,N
1505119815.7,286046998.0,N
1505119835.5,286046999.1,N
1505119855.4,286047001.1,N
1505119875.2,286046998.7,N
1505119895.0,286047001.3,N
1505119895.9,286047001.3,N
1505119915.8,286047001.4,N
1505119935.6,286047002.8,N
1505119955.4,286046999.4,N
1505119975.3,286046999.0,N
1505119995.1,286046999.2,N
1505119996.0,286046999.2,N
1505120015.0,286047000.2,N
1505120015.9,286047000.2,N
1505120035.8,286046998.1,N
1505120055.6,286047001.3,N
1505120075.4,286047000.8,N
1505120095.3,286047000.6,N
1505120115.1,286047000.4,N
1505120116.0,286047000.4,N
1505120135.8,286046995.1,P
1505120155.7,286046996.0,N
1505120175.5,286046996.0,N
1505120195.3,286046998.0,N
1505120215.2,286046993.3,P
1505120235.9,286046999.4,N
1505120255.7,286046998.1,N
1505120275.6,286047002.0,N
1505120295.4,286047005.7,N
1505120315.2,286047002.5,N
1505120335.1,286046998.4,N
1505120336.0,286046998.4,N
1505120355.8,286046998.5,N
1505120375.6,286047002.6,N
1505120395.5,286047003.2,N
